Weather History for College Station, TX

Change the Weather History Date:

Tuesday, August 21, 2012

  Actual Average Record
Temperature  
Mean Temperature 82 °F 85 °F  
Max Temperature 90 °F 96 °F 108 °F (1925)
Min Temperature 73 °F 75 °F 58 °F (1940)
Degree Days  
Heating Degree Days 0 0  
Month to date heating degree days 0 0  
Since 1 June heating degree days 0 0  
Since 1 July heating degree days 0 0  
Cooling Degree Days 17 20  
Month to date cooling degree days 478 438  
Year to date cooling degree days 2554 2153  
Since 1 June cooling degree days 1688 1565  
Growing Degree Days 31 (Base 50)    
Moisture  
Dew Point 65 °F    
Average Humidity 63    
Maximum Humidity 82    
Minimum Humidity 40    
Precipitation  
Precipitation 0.01 in 0.10 in 3.14 in (1914)
Month to date precipitation 1.71 1.65  
Year to date precipitation 31.53 24.49  
Sea Level Pressure  
Sea Level Pressure 29.97 in    
Wind  
Wind Speed 8 mph (ENE)    
Max Wind Speed 21 mph    
Max Gust Speed 26 mph    
Visibility 10 miles    
Events Rain    
T = Trace of Precipitation, MM = Missing Value Source: NWS Daily Summary

Daily Weather History Graph

Daily Weather History Graph

Search for Another Location

Airport:

Trip Planner

Search our weather history database for the weather conditions in past years. The results will help you decide how hot, cold, wet, or windy it might be!

Date:

Astronomy

Aug. 21, 2012 Rise Set
Actual Time 6:55 AM CDT 8:00 PM CDT
Civil Twilight 6:30 AM CDT 8:25 PM CDT
Nautical Twilight 6:01 AM CDT 8:54 PM CDT
Astronomical Twilight 5:30 AM CDT 9:25 PM CDT
Moon 11:03 AM CDT (8/21) 10:27 PM CDT (8/21)
Length of Visible Light 13h 54m
Length of Day
13h 04m
Waxing Crescent, 19% of the Moon is Illuminated
Aug 21
Waxing Crescent
Aug 24
First Quarter
Aug 31
Full
Sep 8
Last Quarter
Sep 15
New

Hourly Weather History & Observations

Time (CDT) Temp. Heat Index Dew Point Humidity Pressure Visibility Wind Dir Wind Speed Gust Speed Precip Events Conditions
12:53 AM 77.0 °F - 57.9 °F 52% 29.93 in 10.0 mi NE 3.5 mph - N/A   Clear
1:53 AM 77.0 °F - 59.0 °F 54% 29.92 in 10.0 mi NE 6.9 mph - N/A   Clear
2:53 AM 75.9 °F - 59.0 °F 56% 29.92 in 10.0 mi ENE 6.9 mph - N/A   Clear
3:53 AM 75.0 °F - 61.0 °F 62% 29.91 in 10.0 mi ENE 6.9 mph - N/A   Clear
4:53 AM 73.9 °F - 62.1 °F 66% 29.91 in 10.0 mi ENE 6.9 mph - N/A   Clear
5:53 AM 73.0 °F - 63.0 °F 71% 29.93 in 10.0 mi ENE 4.6 mph - N/A   Clear
6:53 AM 73.0 °F - 64.0 °F 73% 29.97 in 10.0 mi NNE 4.6 mph - N/A   Clear
7:53 AM 73.9 °F - 64.9 °F 73% 29.98 in 10.0 mi ENE 6.9 mph - N/A   Clear
8:53 AM 75.9 °F - 66.9 °F 74% 30.00 in 10.0 mi ENE 8.1 mph - N/A   Clear
9:53 AM 81.0 °F 84.1 °F 69.1 °F 67% 29.99 in 10.0 mi East 10.4 mph - N/A   Clear
10:53 AM 84.0 °F 87.0 °F 68.0 °F 58% 29.99 in 10.0 mi ESE 10.4 mph - N/A   Clear
11:53 AM 87.1 °F 88.3 °F 64.0 °F 46% 29.99 in 10.0 mi East 8.1 mph - N/A   Clear
12:53 PM 88.0 °F 89.6 °F 64.9 °F 46% 29.99 in 10.0 mi Calm Calm - N/A   Clear
1:53 PM 89.1 °F 89.3 °F 62.1 °F 40% 29.98 in 10.0 mi East 4.6 mph - N/A   Clear
2:53 PM 89.1 °F 90.0 °F 63.0 °F 42% 29.98 in 10.0 mi East 6.9 mph - N/A   Scattered Clouds
3:53 PM 88.0 °F 89.3 °F 64.0 °F 45% 29.98 in 10.0 mi NNE 10.4 mph - N/A   Mostly Cloudy
4:53 PM 81.0 °F 84.1 °F 69.1 °F 67% 30.00 in 10.0 mi NNE 17.3 mph 26.5 mph N/A   Overcast
5:53 PM 77.0 °F - 71.1 °F 82% 30.00 in 10.0 mi NNE 16.1 mph - 0.00 in Rain Light Rain
6:53 PM 75.0 °F - 69.1 °F 82% 30.00 in 10.0 mi NE 10.4 mph - 0.01 in Rain Light Rain
7:53 PM 75.9 °F - 66.9 °F 74% 30.00 in 10.0 mi NE 12.7 mph - 0.00 in   Overcast
8:53 PM 75.9 °F - 66.0 °F 71% 30.00 in 10.0 mi NE 10.4 mph - N/A   Overcast
9:53 PM 77.0 °F - 64.9 °F 66% 30.00 in 10.0 mi ENE 8.1 mph - N/A   Overcast
10:53 PM 77.0 °F - 64.0 °F 64% 30.00 in 10.0 mi East 9.2 mph - N/A   Overcast
11:53 PM 77.0 °F - 66.9 °F 71% 30.00 in 10.0 mi ENE 5.8 mph - N/A   Overcast